TimeEDT,TemperatureF,Dew PointF,Humidity,Sea Level PressureIn,VisibilityMPH,Wind Direction,Wind SpeedMPH,Gust SpeedMPH,PrecipitationIn,Events,Conditions,WindDirDegrees,DateUTC
12:15 AM,52.9,48.7,86,29.83,10.0,NW,6.9,-,N/A,,Overcast,310,2013-09-14 04:15:00
12:35 AM,52.7,48.2,85,29.84,10.0,NW,5.8,-,N/A,,Overcast,320,2013-09-14 04:35:00
12:55 AM,52.7,48.2,85,29.84,10.0,North,4.6,-,N/A,,Overcast,350,2013-09-14 04:55:00
1:15 AM,52.3,47.7,84,29.84,10.0,NNW,4.6,-,N/A,,Overcast,340,2013-09-14 05:15:00
1:35 AM,52.0,47.7,85,29.84,7.0,NNW,3.5,-,N/A,,Overcast,330,2013-09-14 05:35:00
1:55 AM,51.8,47.8,86,29.85,10.0,Calm,Calm,-,N/A,,Overcast,0,2013-09-14 05:55:00
2:15 AM,51.4,47.5,86,29.85,5.0,NW,3.5,-,N/A,Rain,Rain,310,2013-09-14 06:15:00
2:35 AM,51.1,47.7,88,29.85,7.0,Calm,Calm,-,N/A,,Drizzle,0,2013-09-14 06:35:00
2:55 AM,50.9,47.5,88,29.86,7.0,Calm,Calm,-,N/A,,Heavy Drizzle,0,2013-09-14 06:55:00
3:15 AM,50.9,47.7,89,29.86,7.0,Calm,Calm,-,N/A,Rain,Light Rain,0,2013-09-14 07:15:00
3:35 AM,50.9,48.0,90,29.86,5.0,Calm,Calm,-,N/A,,Drizzle,0,2013-09-14 07:35:00
3:55 AM,50.9,47.7,89,29.87,4.0,Calm,Calm,-,N/A,Rain,Light Rain,0,2013-09-14 07:55:00
4:15 AM,50.2,47.5,90,29.87,7.0,Calm,Calm,-,N/A,Rain,Light Rain,0,2013-09-14 08:15:00
4:35 AM,50.2,47.3,90,29.87,5.0,Calm,Calm,-,N/A,Rain,Rain,0,2013-09-14 08:35:00
4:55 AM,50.0,47.1,90,29.87,5.0,Calm,Calm,-,N/A,Rain,Rain,0,2013-09-14 08:55:00
5:15 AM,50.0,46.9,89,29.88,5.0,NW,3.5,-,N/A,Rain,Rain,310,2013-09-14 09:15:00
5:35 AM,50.0,46.8,89,29.89,7.0,WNW,5.8,-,N/A,Rain,Rain,300,2013-09-14 09:35:00
5:55 AM,49.6,46.8,90,29.89,10.0,Calm,Calm,-,N/A,Rain,Light Rain,0,2013-09-14 09:55:00
6:15 AM,49.6,46.2,88,29.90,10.0,Calm,Calm,-,N/A,Rain,Light Rain,0,2013-09-14 10:15:00
6:35 AM,50.0,45.9,86,29.90,10.0,NNW,4.6,-,N/A,Rain,Light Rain,330,2013-09-14 10:35:00
6:55 AM,49.5,46.0,88,29.91,7.0,Calm,Calm,-,N/A,Rain,Rain,0,2013-09-14 10:55:00
7:15 AM,49.6,46.4,89,29.92,10.0,Calm,Calm,-,N/A,Rain,Light Rain,0,2013-09-14 11:15:00
7:35 AM,49.8,46.4,88,29.93,10.0,Calm,Calm,-,N/A,Rain,Light Rain,0,2013-09-14 11:35:00
7:55 AM,50.2,46.4,87,29.93,10.0,Calm,Calm,-,N/A,Rain,Light Rain,0,2013-09-14 11:55:00
8:15 AM,50.5,46.8,87,29.93,10.0,Calm,Calm,-,N/A,Rain,Rain,0,2013-09-14 12:15:00
8:35 AM,50.9,47.3,87,29.94,10.0,Calm,Calm,-,N/A,,Overcast,0,2013-09-14 12:35:00
8:55 AM,50.9,46.6,85,29.94,10.0,North,4.6,-,N/A,,Overcast,350,2013-09-14 12:55:00
9:15 AM,51.4,46.9,85,29.95,10.0,NNW,4.6,-,N/A,,Overcast,340,2013-09-14 13:15:00
9:35 AM,52.0,46.6,82,29.96,10.0,NNW,6.9,-,N/A,,Overcast,330,2013-09-14 13:35:00
9:55 AM,52.5,46.9,81,29.96,10.0,WNW,9.2,-,N/A,,Overcast,300,2013-09-14 13:55:00
10:15 AM,52.3,46.6,81,29.96,10.0,WNW,4.6,-,N/A,,Overcast,300,2013-09-14 14:15:00
10:35 AM,52.7,47.1,81,29.96,10.0,NNW,5.8,-,N/A,,Overcast,340,2013-09-14 14:35:00
10:55 AM,51.8,47.3,85,29.96,7.0,NNW,4.6,-,N/A,,Overcast,330,2013-09-14 14:55:00
11:15 AM,51.8,47.5,85,29.96,5.0,West,5.8,-,N/A,,Haze,270,2013-09-14 15:15:00
11:35 AM,51.8,47.7,86,29.97,3.0,NW,4.6,-,N/A,,Overcast,320,2013-09-14 15:35:00
11:55 AM,52.9,47.7,82,29.97,10.0,WNW,6.9,-,N/A,,Overcast,300,2013-09-14 15:55:00
12:15 PM,53.6,47.8,81,29.97,10.0,NW,5.8,-,N/A,,Overcast,310,2013-09-14 16:15:00
12:35 PM,52.9,47.3,81,29.97,10.0,West,6.9,-,N/A,,Overcast,280,2013-09-14 16:35:00
12:55 PM,52.9,47.1,81,29.97,10.0,WNW,8.1,-,N/A,,Overcast,290,2013-09-14 16:55:00
1:15 PM,54.5,47.1,76,29.96,10.0,West,6.9,-,N/A,,Overcast,280,2013-09-14 17:15:00
1:35 PM,55.0,46.9,74,29.96,10.0,WNW,6.9,-,N/A,,Overcast,290,2013-09-14 17:35:00
1:55 PM,54.7,46.9,75,29.97,10.0,West,5.8,-,N/A,,Overcast,260,2013-09-14 17:55:00
2:15 PM,54.5,46.8,75,29.97,10.0,West,5.8,-,N/A,,Overcast,270,2013-09-14 18:15:00
2:35 PM,54.5,46.8,75,29.97,10.0,West,6.9,-,N/A,,Overcast,270,2013-09-14 18:35:00
2:55 PM,54.0,46.4,76,29.97,10.0,West,8.1,-,N/A,,Overcast,280,2013-09-14 18:55:00
3:15 PM,54.0,46.8,77,29.97,10.0,WNW,4.6,-,N/A,,Overcast,290,2013-09-14 19:15:00
3:35 PM,54.5,46.8,75,29.97,10.0,WNW,4.6,-,N/A,,Overcast,300,2013-09-14 19:35:00
3:55 PM,55.4,46.8,73,29.98,10.0,North,6.9,-,N/A,,Overcast,10,2013-09-14 19:55:00
4:15 PM,55.4,46.8,73,29.98,10.0,North,5.8,-,N/A,,Overcast,360,2013-09-14 20:15:00
4:35 PM,54.5,45.9,73,29.98,10.0,North,5.8,-,N/A,,Overcast,350,2013-09-14 20:35:00
4:55 PM,54.5,46.4,74,29.99,10.0,NE,4.6,-,N/A,,Overcast,50,2013-09-14 20:55:00
5:15 PM,53.8,47.1,78,30.00,10.0,Calm,Calm,-,N/A,,Overcast,0,2013-09-14 21:15:00
5:35 PM,53.6,47.7,80,30.01,10.0,Calm,Calm,-,N/A,,Overcast,0,2013-09-14 21:35:00
5:55 PM,53.2,47.8,82,30.02,10.0,Calm,Calm,-,N/A,,Overcast,0,2013-09-14 21:55:00
6:15 PM,53.1,47.3,81,30.02,10.0,West,5.8,-,N/A,,Overcast,280,2013-09-14 22:15:00
6:35 PM,52.7,45.5,76,30.03,10.0,WNW,9.2,-,N/A,,Overcast,290,2013-09-14 22:35:00
6:55 PM,52.7,45.1,75,30.04,10.0,WNW,4.6,-,N/A,,Overcast,290,2013-09-14 22:55:00
7:15 PM,52.7,45.7,77,30.05,10.0,WNW,4.6,-,N/A,,Overcast,300,2013-09-14 23:15:00
7:35 PM,52.7,45.7,77,30.05,10.0,NW,4.6,-,N/A,,Overcast,310,2013-09-14 23:35:00
7:55 PM,52.5,45.7,78,30.05,10.0,North,3.5,-,N/A,,Overcast,10,2013-09-14 23:55:00
8:15 PM,52.7,46.0,78,30.06,10.0,Calm,Calm,-,N/A,,Overcast,0,2013-09-15 00:15:00
8:35 PM,50.9,46.6,85,30.06,10.0,Calm,Calm,-,N/A,,Overcast,0,2013-09-15 00:35:00
8:55 PM,50.9,46.6,85,30.06,10.0,Calm,Calm,-,N/A,,Overcast,0,2013-09-15 00:55:00
9:15 PM,50.9,46.6,85,30.07,10.0,Calm,Calm,-,N/A,,Overcast,0,2013-09-15 01:15:00
9:35 PM,50.9,47.1,87,30.07,10.0,Calm,Calm,-,N/A,,Overcast,0,2013-09-15 01:35:00
9:55 PM,49.6,45.7,86,30.08,10.0,Calm,Calm,-,N/A,,Mostly Cloudy,0,2013-09-15 01:55:00
10:15 PM,49.1,45.7,88,30.08,10.0,Calm,Calm,-,N/A,,Scattered Clouds,0,2013-09-15 02:15:00
10:35 PM,48.7,45.5,89,30.08,10.0,Calm,Calm,-,N/A,,Clear,0,2013-09-15 02:35:00
10:55 PM,48.2,45.1,89,30.08,10.0,Calm,Calm,-,N/A,,Clear,0,2013-09-15 02:55:00
11:15 PM,48.7,45.1,87,30.08,10.0,Calm,Calm,-,N/A,,Clear,0,2013-09-15 03:15:00
11:35 PM,47.5,44.6,90,30.08,1.0,Calm,Calm,-,N/A,,Mostly Cloudy,0,2013-09-15 03:35:00
11:55 PM,45.5,43.0,91,30.09,0.2,Calm,Calm,-,N/A,,Light Drizzle,0,2013-09-15 03:55:00